CST,Max TemperatureF,Mean TemperatureF,Min TemperatureF,Max Dew PointF,MeanDew PointF,Min DewpointF,Max Humidity, Mean Humidity, Min Humidity, Max Sea Level PressureIn, Mean Sea Level PressureIn, Min Sea Level PressureIn, Max VisibilityMiles, Mean VisibilityMiles, Min VisibilityMiles, Max Wind SpeedMPH, Mean Wind SpeedMPH, Max Gust SpeedMPH,PrecipitationIn, CloudCover, Events, WindDirDegrees
2013-11-1,55,47,38,45,42,37,100,80,59,29.83,29.70,29.58,10,10,10,20,9,24,0.00,3,,254
2013-11-2,55,43,30,41,36,30,92,68,44,30.19,30.01,29.82,10,10,8,21,9,28,0.00,3,,291
2013-11-3,55,42,28,37,32,28,100,68,35,30.32,30.23,30.17,10,10,10,16,8,23,0.00,0,,148
2013-11-4,57,52,47,45,40,34,71,63,55,30.22,30.18,30.12,10,10,10,24,15,31,0.00,3,,167
2013-11-5,58,55,51,52,50,45,100,86,71,30.27,30.18,29.99,10,7,1,24,13,32,0.17,8,Rain,169
2013-11-6,58,47,35,57,46,30,100,91,82,30.27,30.03,29.89,10,8,1,30,13,38,0.42,6,Rain,257
2013-11-7,53,40,27,37,29,26,92,67,41,30.37,30.31,30.27,10,10,10,22,8,29,0.00,1,,268
2013-11-8,53,39,25,34,30,24,92,68,44,30.38,30.24,30.05,10,10,10,26,11,35,0.00,1,,181
2013-11-9,66,51,36,40,35,32,73,52,30,30.24,30.08,30.00,10,10,10,22,13,30,0.00,0,,249
2013-11-10,50,42,33,34,30,28,82,62,42,30.45,30.35,30.26,10,10,8,16,6,21,0.00,0,,297
2013-11-11,56,42,28,42,34,21,92,74,55,30.54,30.30,30.14,10,7,1,24,12,33,0.20,8,Rain-Snow,333
2013-11-12,33,25,17,21,17,14,84,69,54,30.79,30.72,30.56,10,10,10,16,8,22,0.00,0,,328
2013-11-13,43,30,16,20,17,13,92,63,34,30.70,30.52,30.28,10,10,10,20,10,24,0.00,0,,203
2013-11-14,55,43,30,27,21,17,63,43,22,30.26,30.13,30.04,10,10,10,23,15,30,0.00,0,,195
2013-11-15,55,47,38,41,33,26,83,65,46,30.06,30.01,29.94,10,10,10,21,11,26,0.01,4,Rain,182
2013-11-16,61,54,46,57,51,42,93,83,72,29.92,29.77,29.62,10,10,6,32,19,41,0.01,6,Rain,176
2013-11-17,74,58,42,64,53,39,93,72,51,29.93,29.55,29.30,10,10,2,47,19,62,0.07,3,Rain,220
2013-11-18,52,41,29,38,30,24,92,64,35,30.32,30.16,29.95,10,10,10,24,11,35,0.00,0,,288
2013-11-19,47,36,24,28,25,23,85,64,42,30.38,30.32,30.25,10,10,10,14,6,17,0.00,0,,98
2013-11-20,45,38,31,40,32,26,89,75,60,30.25,30.17,30.07,10,10,7,20,9,24,0.13,4,Rain,138
2013-11-21,50,47,44,47,45,39,100,87,74,30.23,30.16,30.10,10,6,0,17,7,21,0.15,8,Fog-Rain,199
2013-11-22,46,37,27,42,33,24,96,86,75,30.55,30.44,30.24,10,8,4,17,10,23,0.07,6,Rain,336
2013-11-23,30,23,15,24,15,8,92,74,55,30.76,30.65,30.55,10,10,10,22,11,29,0.00,2,,330
2013-11-24,29,19,8,12,8,2,84,59,33,30.81,30.67,30.46,10,10,10,14,5,17,0.00,0,,228
2013-11-25,34,29,24,21,16,11,69,58,47,30.43,30.27,30.19,10,10,10,17,10,22,T,6,,206
2013-11-26,37,28,19,25,18,7,88,65,42,30.25,30.15,30.08,10,10,10,25,10,36,0.00,4,,305
2013-11-27,28,21,14,9,7,4,73,56,39,30.35,30.31,30.25,10,10,10,16,9,23,0.00,0,,303
2013-11-28,41,30,18,20,15,9,68,54,40,30.53,30.34,30.24,10,10,10,20,10,24,0.00,0,,257
2013-11-29,40,27,14,24,18,11,88,64,40,30.64,30.54,30.40,10,10,10,15,6,21,0.00,0,,135
2013-11-30,54,42,30,31,28,24,78,60,41,30.39,30.22,30.11,10,10,10,16,10,23,0.00,0,,189